User: anonymous   Login
Location: Hepcat Sky Observatory
(29.9800°N, 95.6500°W)
Time: 14:32:19
(UTC-05:00)
Language:

Cosmos 2151 Rocket - Orbit

View from above orbital plane
View from above orbital plane
View from above satellite
View from above satellite

Ground track
Ground track

The orbit data is extracted from the following two-line orbital elements,

1 21423U 91042B   18147.05534524 +.00000098 +00000-0 +99284-5 0  9991
2 21423 082.4939 000.0738 0017041 199.4781 160.5783 14.79733277432390
Epoch (UTC): 27 May 2018 01:19:41
Eccentricity: 0.0017041
inclination: 82.4939°
perigee height: 618 km
apogee height: 642 km
right ascension of ascending node: 0.0738°
argument of perigee: 199.4781°
revolutions per day: 14.79733277
mean anomaly at epoch: 160.5783°
orbit number at epoch: 43239

The dashed part of the orbit path shows where the satellite is in the earth's shadow,  

DLR